User: anonymous   Login
Location: Ernsee
(50.8780°N, 12.0389°E)
Time: 01:37:47
(UTC+00:00)
Language:

FALCON 9 DEB - Orbit

View from above orbital plane
View from above orbital plane
View from above satellite
View from above satellite

Ground track
Ground track

The orbit data is extracted from the following two-line orbital elements,

1 44295U 19029BN  20093.67872111  .00001872  00000-0  50541-4 0  9999
2 44295  53.0006 120.5014 0009320 173.8417 186.2704 15.43395184 49798
Epoch (UTC): 02 April 2020 16:17:21
Eccentricity: 0.0009320
inclination: 53.0006°
perigee height: 430 km
apogee height: 442 km
right ascension of ascending node: 120.5014°
argument of perigee: 173.8417°
revolutions per day: 15.43395184
mean anomaly at epoch: 186.2704°
orbit number at epoch: 4979

The dashed part of the orbit path shows where the satellite is in the earth's shadow,  

DLR